Terminal Aerodrome Forecast
Issued by NWS

Home | Current Version | Previous Version | Graphics & Text | Print | Product List | Glossary Off
Versions: 1 2 3 4 5 6 7 8 9 10 11 12 13 14 15 16 17 18 19 20 21 22 23 24 25 26 27 28 29 30 31 32 33 34 35 36 37 38 39 40 41 42 43 44 45 46 47 48 49 50

000
FTUS43 KDDC 262005 AAA
TAFGCK
TAF AMD
KGCK 262005Z 2620/2718 15010G16KT P6SM FEW040 SCT120
     FM270100 16009KT P6SM OVC150
     FM270400 17010KT P6SM SHRA OVC120=

USA.gov is the U.S. government's official web portal to all federal, state and local government web resources and services.